PHLI

Lihue

Airport
ICAO code
PHLI
Summary
ICAO Region
NAM
ICAO Territory
Location

Lihue,

Coordinates
21° 58' 34" N , 159° 20' 20" W
KCC
Metar
PHLI 152053Z 05012KT 10SM FEW023 28/21 A3011 RMK AO2 SLP194 T02830206 58001

Description

Lihue Airport is a state-owned public-use airport located in the Līhuʻe on the southeast coast of the island of Kauaʻi in Kauai County, Hawaiʻi, United States, 2 nm east of the center of Līhuʻe.

Climatology

Tropical Monsoon climate (Köppen climate classification Am) - monthly mean temperatures above 18°C in every month of the year and features wet and dry seasons. A tropical monsoon climate typically features less pronounced dry seasons than a tropical savanna climate and see less variance in temperatures during the course of the year.

Runways

Designator Length Width Surface Rops
3/21 1981 46 ASP Yes/Yes
17/35 1981 46 ASP Yes/Yes

SKYbrary Partners:

Safety knowledge contributed by: